Year,Month,Day,Hour,Minute,Value (Times are PST for temperature in C)
2008,04,05,00,00,3.80
2008,04,05,00,01,3.80
2008,04,05,00,02,3.80
2008,04,05,00,03,3.80
2008,04,05,00,04,3.90
2008,04,05,00,05,3.90
2008,04,05,00,06,3.90
2008,04,05,00,07,3.90
2008,04,05,00,08,3.90
2008,04,05,00,09,3.90
2008,04,05,00,10,3.90
2008,04,05,00,11,4.00
2008,04,05,00,12,4.00
2008,04,05,00,13,4.10
2008,04,05,00,14,4.10
2008,04,05,00,15,4.00
2008,04,05,00,16,4.00
2008,04,05,00,17,4.00
2008,04,05,00,18,4.00
2008,04,05,00,19,4.00
2008,04,05,00,20,3.90
2008,04,05,00,21,3.90
2008,04,05,00,22,3.90
2008,04,05,00,23,3.80
2008,04,05,00,24,3.80
2008,04,05,00,25,3.80
2008,04,05,00,26,3.80
2008,04,05,00,27,3.80
2008,04,05,00,28,3.70
2008,04,05,00,29,3.70
2008,04,05,00,30,3.70
2008,04,05,00,31,3.70
2008,04,05,00,32,3.70
2008,04,05,00,33,3.60
2008,04,05,00,34,3.60
2008,04,05,00,35,3.50
2008,04,05,00,36,3.50
2008,04,05,00,37,3.50
2008,04,05,00,38,3.40
2008,04,05,00,39,3.40
2008,04,05,00,40,3.40
2008,04,05,00,41,3.40
2008,04,05,00,42,3.40
2008,04,05,00,43,3.40
2008,04,05,00,44,3.40
2008,04,05,00,45,3.50
2008,04,05,00,46,3.50
2008,04,05,00,47,3.50
2008,04,05,00,48,3.50
2008,04,05,00,49,3.50
2008,04,05,00,50,3.40
2008,04,05,00,51,3.40
2008,04,05,00,52,3.40
2008,04,05,00,53,3.30
2008,04,05,00,54,3.30
2008,04,05,00,55,3.30
2008,04,05,00,56,3.30
2008,04,05,00,57,3.30
2008,04,05,00,58,3.30
2008,04,05,00,59,3.30
2008,04,05,01,00,3.30
2008,04,05,01,01,3.30
2008,04,05,01,02,3.30
2008,04,05,01,03,3.30
2008,04,05,01,04,3.30
2008,04,05,01,05,3.30
2008,04,05,01,06,3.20
2008,04,05,01,07,3.20
2008,04,05,01,08,3.20
2008,04,05,01,09,3.20
2008,04,05,01,10,3.20
2008,04,05,01,11,3.20
2008,04,05,01,12,3.20
2008,04,05,01,13,3.20
2008,04,05,01,14,3.20
2008,04,05,01,15,3.20
2008,04,05,01,16,3.20
2008,04,05,01,17,3.20
2008,04,05,01,18,3.20
2008,04,05,01,19,3.20
2008,04,05,01,20,3.20
2008,04,05,01,21,3.10
2008,04,05,01,22,3.10
2008,04,05,01,23,3.10
2008,04,05,01,24,3.00
2008,04,05,01,25,3.00
2008,04,05,01,26,3.00
2008,04,05,01,27,2.90
2008,04,05,01,28,2.90
2008,04,05,01,29,2.90
2008,04,05,01,30,2.90
2008,04,05,01,31,2.80
2008,04,05,01,32,2.80
2008,04,05,01,33,2.80
2008,04,05,01,34,2.70
2008,04,05,01,35,2.70
2008,04,05,01,36,2.60
2008,04,05,01,37,2.60
2008,04,05,01,38,2.60
2008,04,05,01,39,2.60
2008,04,05,01,40,2.60
2008,04,05,01,41,2.60
2008,04,05,01,42,2.60
2008,04,05,01,43,2.60
2008,04,05,01,44,2.60
2008,04,05,01,45,2.60
2008,04,05,01,46,2.60
2008,04,05,01,47,2.60
2008,04,05,01,48,2.60
2008,04,05,01,49,2.60
2008,04,05,01,50,2.60
2008,04,05,01,51,2.50
2008,04,05,01,52,2.50
2008,04,05,01,53,2.40
2008,04,05,01,54,2.40
2008,04,05,01,55,2.30
2008,04,05,01,56,2.30
2008,04,05,01,57,2.30
2008,04,05,01,58,2.20
2008,04,05,01,59,2.20
2008,04,05,02,00,2.20
2008,04,05,02,01,2.20
2008,04,05,02,02,2.20
2008,04,05,02,03,2.20
2008,04,05,02,04,2.20
2008,04,05,02,05,2.20
2008,04,05,02,06,2.20
2008,04,05,02,07,2.20
2008,04,05,02,08,2.20
2008,04,05,02,09,2.20
2008,04,05,02,10,2.10
2008,04,05,02,11,2.10
2008,04,05,02,12,2.00
2008,04,05,02,13,2.00
2008,04,05,02,14,1.90
2008,04,05,02,15,1.80
2008,04,05,02,16,1.80
2008,04,05,02,17,1.80
2008,04,05,02,18,1.80
2008,04,05,02,19,1.70
2008,04,05,02,20,1.70
2008,04,05,02,21,1.70
2008,04,05,02,22,1.70
2008,04,05,02,23,1.60
2008,04,05,02,24,1.60
2008,04,05,02,25,1.60
2008,04,05,02,26,1.50
2008,04,05,02,27,1.50
2008,04,05,02,28,1.40
2008,04,05,02,29,1.40
2008,04,05,02,30,1.30
2008,04,05,02,31,1.30
2008,04,05,02,32,1.30
2008,04,05,02,33,1.30
2008,04,05,02,34,1.30
2008,04,05,02,35,1.30
2008,04,05,02,36,1.30
2008,04,05,02,37,1.30
2008,04,05,02,38,1.30
2008,04,05,02,39,1.30
2008,04,05,02,40,1.30
2008,04,05,02,41,1.30
2008,04,05,02,42,1.20
2008,04,05,02,43,1.20
2008,04,05,02,44,1.20
2008,04,05,02,45,1.20
2008,04,05,02,46,1.30
2008,04,05,02,47,1.20
2008,04,05,02,48,1.20
2008,04,05,02,49,1.20
2008,04,05,02,50,1.20
2008,04,05,02,51,1.20
2008,04,05,02,52,1.10
2008,04,05,02,53,1.10
2008,04,05,02,54,1.20
2008,04,05,02,55,1.20
2008,04,05,02,56,1.20
2008,04,05,02,57,1.20
2008,04,05,02,58,1.20
2008,04,05,02,59,1.20
2008,04,05,03,00,1.20
2008,04,05,03,01,1.20
2008,04,05,03,02,1.10
2008,04,05,03,03,1.10
2008,04,05,03,04,1.10
2008,04,05,03,05,1.10
2008,04,05,03,06,1.10
2008,04,05,03,07,1.10
2008,04,05,03,08,1.10
2008,04,05,03,09,1.10
2008,04,05,03,10,1.00
2008,04,05,03,11,0.90
2008,04,05,03,12,0.90
2008,04,05,03,13,0.80
2008,04,05,03,14,0.80
2008,04,05,03,15,0.80
2008,04,05,03,16,0.80
2008,04,05,03,17,0.90
2008,04,05,03,18,0.90
2008,04,05,03,19,1.00
2008,04,05,03,20,1.00
2008,04,05,03,21,1.10
2008,04,05,03,22,1.00
2008,04,05,03,23,0.90
2008,04,05,03,24,0.90
2008,04,05,03,25,0.80
2008,04,05,03,26,0.80
2008,04,05,03,27,0.80
2008,04,05,03,28,0.80
2008,04,05,03,29,0.80
2008,04,05,03,30,0.80
2008,04,05,03,31,0.90
2008,04,05,03,32,0.90
2008,04,05,03,33,0.90
2008,04,05,03,34,0.90
2008,04,05,03,35,1.00
2008,04,05,03,36,0.90
2008,04,05,03,37,0.90
2008,04,05,03,38,0.90
2008,04,05,03,39,0.90
2008,04,05,03,40,0.80
2008,04,05,03,41,0.80
2008,04,05,03,42,0.70
2008,04,05,03,43,0.70
2008,04,05,03,44,0.70
2008,04,05,03,45,0.70
2008,04,05,03,46,0.70
2008,04,05,03,47,0.70
2008,04,05,03,48,0.70
2008,04,05,03,49,0.70
2008,04,05,03,50,0.70
2008,04,05,03,51,0.70
2008,04,05,03,52,0.60
2008,04,05,03,53,0.60
2008,04,05,03,54,0.60
2008,04,05,03,55,0.60
2008,04,05,03,56,0.50
2008,04,05,03,57,0.60
2008,04,05,03,58,0.60
2008,04,05,03,59,0.60
2008,04,05,04,00,0.70
2008,04,05,04,01,0.70
2008,04,05,04,02,0.70
2008,04,05,04,03,0.60
2008,04,05,04,04,0.60
2008,04,05,04,05,0.70
2008,04,05,04,06,0.70
2008,04,05,04,07,0.80
2008,04,05,04,08,0.80
2008,04,05,04,09,0.80
2008,04,05,04,10,0.80
2008,04,05,04,11,0.80
2008,04,05,04,12,0.80
2008,04,05,04,13,0.80
2008,04,05,04,14,0.80
2008,04,05,04,15,0.80
2008,04,05,04,16,0.80
2008,04,05,04,17,0.80
2008,04,05,04,18,0.80
2008,04,05,04,19,0.80
2008,04,05,04,20,0.80
2008,04,05,04,21,0.80
2008,04,05,04,22,0.80
2008,04,05,04,23,0.80
2008,04,05,04,24,0.80
2008,04,05,04,25,0.80
2008,04,05,04,26,0.80
2008,04,05,04,27,0.80
2008,04,05,04,28,0.80
2008,04,05,04,29,0.90
2008,04,05,04,30,0.90
2008,04,05,04,31,0.90
2008,04,05,04,32,0.90
2008,04,05,04,33,0.90
2008,04,05,04,34,0.90
2008,04,05,04,35,1.00
2008,04,05,04,36,1.10
2008,04,05,04,37,1.10
2008,04,05,04,38,1.20
2008,04,05,04,39,1.20
2008,04,05,04,40,1.20
2008,04,05,04,41,1.10
2008,04,05,04,42,1.20
2008,04,05,04,43,1.20
2008,04,05,04,44,1.20
2008,04,05,04,45,1.20
2008,04,05,04,46,1.20
2008,04,05,04,47,1.20
2008,04,05,04,48,1.20
2008,04,05,04,49,1.20
2008,04,05,04,50,1.20
2008,04,05,04,51,1.20
2008,04,05,04,52,1.20
2008,04,05,04,53,1.20
2008,04,05,04,54,1.20
2008,04,05,04,55,1.20
2008,04,05,04,56,1.20
2008,04,05,04,57,1.10
2008,04,05,04,58,1.10
2008,04,05,04,59,1.10
2008,04,05,05,00,1.20
2008,04,05,05,01,1.20
2008,04,05,05,02,1.20
2008,04,05,05,03,1.20
2008,04,05,05,04,1.20
2008,04,05,05,05,1.20
2008,04,05,05,06,1.20
2008,04,05,05,07,1.20
2008,04,05,05,08,1.20
2008,04,05,05,09,1.30
2008,04,05,05,10,1.30
2008,04,05,05,11,1.30
2008,04,05,05,12,1.30
2008,04,05,05,13,1.30
2008,04,05,05,14,1.30
2008,04,05,05,15,1.30
2008,04,05,05,16,1.30
2008,04,05,05,17,1.30
2008,04,05,05,18,1.30
2008,04,05,05,19,1.30
2008,04,05,05,20,1.40
2008,04,05,05,21,1.50
2008,04,05,05,22,1.50
2008,04,05,05,23,1.60
2008,04,05,05,24,1.60
2008,04,05,05,25,1.70
2008,04,05,05,26,1.70
2008,04,05,05,27,1.70
2008,04,05,05,28,1.70
2008,04,05,05,29,1.60
2008,04,05,05,30,1.60
2008,04,05,05,31,1.60
2008,04,05,05,32,1.60
2008,04,05,05,33,1.70
2008,04,05,05,34,1.70
2008,04,05,05,35,1.70
2008,04,05,05,36,1.70
2008,04,05,05,37,1.70
2008,04,05,05,38,1.60
2008,04,05,05,39,1.60
2008,04,05,05,40,1.60
2008,04,05,05,41,1.60
2008,04,05,05,42,1.60
2008,04,05,05,43,1.60
2008,04,05,05,44,1.60
2008,04,05,05,45,1.60
2008,04,05,05,46,1.60
2008,04,05,05,47,1.60
2008,04,05,05,48,1.60
2008,04,05,05,49,1.60
2008,04,05,05,50,1.60
2008,04,05,05,51,1.60
2008,04,05,05,52,1.60
2008,04,05,05,53,1.60
2008,04,05,05,54,1.60
2008,04,05,05,55,1.60
2008,04,05,05,56,1.60
2008,04,05,05,57,1.60
2008,04,05,05,58,1.60
2008,04,05,05,59,1.60
2008,04,05,06,00,1.60
2008,04,05,06,01,1.60
2008,04,05,06,02,1.60
2008,04,05,06,03,1.60
2008,04,05,06,04,1.60
2008,04,05,06,05,1.60
2008,04,05,06,06,1.60
2008,04,05,06,07,1.60
2008,04,05,06,08,1.60
2008,04,05,06,09,1.60
2008,04,05,06,10,1.70
2008,04,05,06,11,1.70
2008,04,05,06,12,1.70
2008,04,05,06,13,1.70
2008,04,05,06,14,1.70
2008,04,05,06,15,1.70
2008,04,05,06,16,1.80
2008,04,05,06,17,1.80
2008,04,05,06,18,1.80
2008,04,05,06,19,1.80
2008,04,05,06,20,1.80
2008,04,05,06,21,1.90
2008,04,05,06,22,1.90
2008,04,05,06,23,1.90
2008,04,05,06,24,1.80
2008,04,05,06,25,1.80
2008,04,05,06,26,1.80
2008,04,05,06,27,1.80
2008,04,05,06,28,1.80
2008,04,05,06,29,1.80
2008,04,05,06,30,1.80
2008,04,05,06,31,1.90
2008,04,05,06,32,1.90
2008,04,05,06,33,1.90
2008,04,05,06,34,1.90
2008,04,05,06,35,1.90
2008,04,05,06,36,1.90
2008,04,05,06,37,1.90
2008,04,05,06,38,1.90
2008,04,05,06,39,1.90
2008,04,05,06,40,1.90
2008,04,05,06,41,1.90
2008,04,05,06,42,1.80
2008,04,05,06,43,1.80
2008,04,05,06,44,1.80
2008,04,05,06,45,1.80
2008,04,05,06,46,1.80
2008,04,05,06,47,1.80
2008,04,05,06,48,1.80
2008,04,05,06,49,1.80
2008,04,05,06,50,1.90
2008,04,05,06,51,1.90
2008,04,05,06,52,1.90
2008,04,05,06,53,1.90
2008,04,05,06,54,1.90
2008,04,05,06,55,2.00
2008,04,05,06,56,2.00
2008,04,05,06,57,2.00
2008,04,05,06,58,2.10
2008,04,05,06,59,2.10
2008,04,05,07,00,2.20
2008,04,05,07,01,2.20
2008,04,05,07,02,2.20
2008,04,05,07,03,2.20
2008,04,05,07,04,2.20
2008,04,05,07,05,2.20
2008,04,05,07,06,2.30
2008,04,05,07,07,2.30
2008,04,05,07,08,2.30
2008,04,05,07,09,2.30
2008,04,05,07,10,2.40
2008,04,05,07,11,2.40
2008,04,05,07,12,2.40
2008,04,05,07,13,2.50
2008,04,05,07,14,2.50
2008,04,05,07,15,2.50
2008,04,05,07,16,2.50
2008,04,05,07,17,2.60
2008,04,05,07,18,2.60
2008,04,05,07,19,2.60
2008,04,05,07,20,2.60
2008,04,05,07,21,2.60
2008,04,05,07,22,2.60
2008,04,05,07,23,2.60
2008,04,05,07,24,2.60
2008,04,05,07,25,2.70
2008,04,05,07,26,2.70
2008,04,05,07,27,2.70
2008,04,05,07,28,2.80
2008,04,05,07,29,2.80
2008,04,05,07,30,2.90
2008,04,05,07,31,3.00
2008,04,05,07,32,3.00
2008,04,05,07,33,3.10
2008,04,05,07,34,3.20
2008,04,05,07,35,3.30
2008,04,05,07,36,3.40
2008,04,05,07,37,3.50
2008,04,05,07,38,3.50
2008,04,05,07,39,3.60
2008,04,05,07,40,3.70
2008,04,05,07,41,3.80
2008,04,05,07,42,3.90
2008,04,05,07,43,4.00
2008,04,05,07,44,4.00
2008,04,05,07,45,4.10
2008,04,05,07,46,4.10
2008,04,05,07,47,4.20
2008,04,05,07,48,4.20
2008,04,05,07,49,4.20
2008,04,05,07,50,4.30
2008,04,05,07,51,4.30
2008,04,05,07,52,4.30
2008,04,05,07,53,4.40
2008,04,05,07,54,4.40
2008,04,05,07,55,4.50
2008,04,05,07,56,4.50
2008,04,05,07,57,4.50
2008,04,05,07,58,4.60
2008,04,05,07,59,4.60
2008,04,05,08,00,4.60
2008,04,05,08,01,4.70
2008,04,05,08,02,4.70
2008,04,05,08,03,4.70
2008,04,05,08,04,4.80
2008,04,05,08,05,4.80
2008,04,05,08,06,4.80
2008,04,05,08,07,4.80
2008,04,05,08,08,4.90
2008,04,05,08,09,4.90
2008,04,05,08,10,5.00
2008,04,05,08,11,5.00
2008,04,05,08,12,5.10
2008,04,05,08,13,5.10
2008,04,05,08,14,5.10
2008,04,05,08,15,5.20
2008,04,05,08,16,5.20
2008,04,05,08,17,5.20
2008,04,05,08,18,5.20
2008,04,05,08,19,5.20
2008,04,05,08,20,5.20
2008,04,05,08,21,5.20
2008,04,05,08,22,5.20
2008,04,05,08,23,5.20
2008,04,05,08,24,5.20
2008,04,05,08,25,5.10
2008,04,05,08,26,5.10
2008,04,05,08,27,5.10
2008,04,05,08,28,5.10
2008,04,05,08,29,5.00
2008,04,05,08,30,5.00
2008,04,05,08,31,4.90
2008,04,05,08,32,4.90
2008,04,05,08,33,4.90
2008,04,05,08,34,4.90
2008,04,05,08,35,4.90
2008,04,05,08,36,4.80
2008,04,05,08,37,4.80
2008,04,05,08,38,4.80
2008,04,05,08,39,4.80
2008,04,05,08,40,4.80
2008,04,05,08,41,4.80
2008,04,05,08,42,4.70
2008,04,05,08,43,4.70
2008,04,05,08,44,4.70
2008,04,05,08,45,4.70
2008,04,05,08,46,4.70
2008,04,05,08,47,4.70
2008,04,05,08,48,4.70
2008,04,05,08,49,4.70
2008,04,05,08,50,4.70
2008,04,05,08,51,4.70
2008,04,05,08,52,4.70
2008,04,05,08,53,4.70
2008,04,05,08,54,4.70
2008,04,05,08,55,4.60
2008,04,05,08,56,4.60
2008,04,05,08,57,4.60
2008,04,05,08,58,4.60
2008,04,05,08,59,4.60
2008,04,05,09,00,4.60
2008,04,05,09,01,4.60
2008,04,05,09,02,4.60
2008,04,05,09,03,4.60
2008,04,05,09,04,4.60
2008,04,05,09,05,4.60
2008,04,05,09,06,4.60
2008,04,05,09,07,4.60
2008,04,05,09,08,4.70
2008,04,05,09,09,4.70
2008,04,05,09,10,4.70
2008,04,05,09,11,4.70
2008,04,05,09,12,4.70
2008,04,05,09,13,4.70
2008,04,05,09,14,4.70
2008,04,05,09,15,4.70
2008,04,05,09,16,4.70
2008,04,05,09,17,4.70
2008,04,05,09,18,4.80
2008,04,05,09,19,4.80
2008,04,05,09,20,4.80
2008,04,05,09,21,4.80
2008,04,05,09,22,4.80
2008,04,05,09,23,4.80
2008,04,05,09,24,4.80
2008,04,05,09,25,4.80
2008,04,05,09,26,4.90
2008,04,05,09,27,4.90
2008,04,05,09,28,4.90
2008,04,05,09,29,4.90
2008,04,05,09,30,4.90
2008,04,05,09,31,4.90
2008,04,05,09,32,4.90
2008,04,05,09,33,5.00
2008,04,05,09,34,5.00
2008,04,05,09,35,5.00
2008,04,05,09,36,5.00
2008,04,05,09,37,5.10
2008,04,05,09,38,5.10
2008,04,05,09,39,5.10
2008,04,05,09,40,5.10
2008,04,05,09,41,5.10
2008,04,05,09,42,5.10
2008,04,05,09,43,5.10
2008,04,05,09,44,5.10
2008,04,05,09,45,5.10
2008,04,05,09,46,5.10
2008,04,05,09,47,5.10
2008,04,05,09,48,5.10
2008,04,05,09,49,5.10
2008,04,05,09,50,5.10
2008,04,05,09,51,5.10
2008,04,05,09,52,5.10
2008,04,05,09,53,5.10
2008,04,05,09,54,5.10
2008,04,05,09,55,5.10
2008,04,05,09,56,5.10
2008,04,05,09,57,5.10
2008,04,05,09,58,5.10
2008,04,05,09,59,5.10
2008,04,05,10,00,5.10
2008,04,05,10,01,5.10
2008,04,05,10,02,5.10
2008,04,05,10,03,5.10
2008,04,05,10,04,5.10
2008,04,05,10,05,5.10
2008,04,05,10,06,5.20
2008,04,05,10,07,5.20
2008,04,05,10,08,5.20
2008,04,05,10,09,5.20
2008,04,05,10,10,5.30
2008,04,05,10,11,5.30
2008,04,05,10,12,5.30
2008,04,05,10,13,5.30
2008,04,05,10,14,5.40
2008,04,05,10,15,5.40
2008,04,05,10,16,5.40
2008,04,05,10,17,5.50
2008,04,05,10,18,5.50
2008,04,05,10,19,5.50
2008,04,05,10,20,5.60
2008,04,05,10,21,5.60
2008,04,05,10,22,5.60
2008,04,05,10,23,5.60
2008,04,05,10,24,5.70
2008,04,05,10,25,5.70
2008,04,05,10,26,5.70
2008,04,05,10,27,5.70
2008,04,05,10,28,5.70
2008,04,05,10,29,5.80
2008,04,05,10,30,5.80
2008,04,05,10,31,5.80
2008,04,05,10,32,5.80
2008,04,05,10,33,5.80
2008,04,05,10,34,5.90
2008,04,05,10,35,5.90
2008,04,05,10,36,5.90
2008,04,05,10,37,5.90
2008,04,05,10,38,5.90
2008,04,05,10,39,5.90
2008,04,05,10,40,5.90
2008,04,05,10,41,6.00
2008,04,05,10,42,6.00
2008,04,05,10,43,6.00
2008,04,05,10,44,6.10
2008,04,05,10,45,6.10
2008,04,05,10,46,6.10
2008,04,05,10,47,6.10
2008,04,05,10,48,6.10
2008,04,05,10,49,6.10
2008,04,05,10,50,6.20
2008,04,05,10,51,6.20
2008,04,05,10,52,6.20
2008,04,05,10,53,6.20
2008,04,05,10,54,6.20
2008,04,05,10,55,6.20
2008,04,05,10,56,6.20
2008,04,05,10,57,6.30
2008,04,05,10,58,6.30
2008,04,05,10,59,6.20
2008,04,05,11,00,6.30
2008,04,05,11,01,6.30
2008,04,05,11,02,6.30
2008,04,05,11,03,6.30
2008,04,05,11,04,6.30
2008,04,05,11,05,6.30
2008,04,05,11,06,6.40
2008,04,05,11,07,6.40
2008,04,05,11,08,6.40
2008,04,05,11,09,6.40
2008,04,05,11,10,6.50
2008,04,05,11,11,6.50
2008,04,05,11,12,6.50
2008,04,05,11,13,6.60
2008,04,05,11,14,6.60
2008,04,05,11,15,6.60
2008,04,05,11,16,6.60
2008,04,05,11,17,6.60
2008,04,05,11,18,6.60
2008,04,05,11,19,6.60
2008,04,05,11,20,6.60
2008,04,05,11,21,6.60
2008,04,05,11,22,6.70
2008,04,05,11,23,6.70
2008,04,05,11,24,6.70
2008,04,05,11,25,6.80
2008,04,05,11,26,6.80
2008,04,05,11,27,6.90
2008,04,05,11,28,6.90
2008,04,05,11,29,6.90
2008,04,05,11,30,6.90
2008,04,05,11,31,7.00
2008,04,05,11,32,7.10
2008,04,05,11,33,7.10
2008,04,05,11,34,7.20
2008,04,05,11,35,7.30
2008,04,05,11,36,7.30
2008,04,05,11,37,7.40
2008,04,05,11,38,7.40
2008,04,05,11,39,7.40
2008,04,05,11,40,7.50
2008,04,05,11,41,7.60
2008,04,05,11,42,7.60
2008,04,05,11,43,7.70
2008,04,05,11,44,7.70
2008,04,05,11,45,7.70
2008,04,05,11,46,7.80
2008,04,05,11,47,7.90
2008,04,05,11,48,8.00
2008,04,05,11,49,8.10
2008,04,05,11,50,8.10
2008,04,05,11,51,8.10
2008,04,05,11,52,8.10
2008,04,05,11,53,8.10
2008,04,05,11,54,8.00
2008,04,05,11,55,7.90
2008,04,05,11,56,7.90
2008,04,05,11,57,7.90
2008,04,05,11,58,7.90
2008,04,05,11,59,7.90
2008,04,05,12,00,7.90
2008,04,05,12,01,7.90
2008,04,05,12,02,7.90
2008,04,05,12,03,7.90
2008,04,05,12,04,7.90
2008,04,05,12,05,7.90
2008,04,05,12,06,7.90
2008,04,05,12,07,8.00
2008,04,05,12,08,8.00
2008,04,05,12,09,8.10
2008,04,05,12,10,8.10
2008,04,05,12,11,8.20
2008,04,05,12,12,8.20
2008,04,05,12,13,8.20
2008,04,05,12,14,8.20
2008,04,05,12,15,8.10
2008,04,05,12,16,8.10
2008,04,05,12,17,8.20
2008,04,05,12,18,8.20
2008,04,05,12,19,8.10
2008,04,05,12,20,8.10
2008,04,05,12,21,8.10
2008,04,05,12,22,8.10
2008,04,05,12,23,8.00
2008,04,05,12,24,8.00
2008,04,05,12,25,8.10
2008,04,05,12,26,8.10
2008,04,05,12,27,8.10
2008,04,05,12,28,8.10
2008,04,05,12,29,8.10
2008,04,05,12,30,8.10
2008,04,05,12,31,8.10
2008,04,05,12,32,8.20
2008,04,05,12,33,8.20
2008,04,05,12,34,8.20
2008,04,05,12,35,8.30
2008,04,05,12,36,8.30
2008,04,05,12,37,8.30
2008,04,05,12,38,8.20
2008,04,05,12,39,8.20
2008,04,05,12,40,8.20
2008,04,05,12,41,8.20
2008,04,05,12,42,8.20
2008,04,05,12,43,8.20
2008,04,05,12,44,8.20
2008,04,05,12,45,8.20
2008,04,05,12,46,8.20
2008,04,05,12,47,8.20
2008,04,05,12,48,8.30
2008,04,05,12,49,8.30
2008,04,05,12,50,8.30
2008,04,05,12,51,8.30
2008,04,05,12,52,8.30
2008,04,05,12,53,8.30
2008,04,05,12,54,8.40
2008,04,05,12,55,8.50
2008,04,05,12,56,8.50
2008,04,05,12,57,8.60
2008,04,05,12,58,8.60
2008,04,05,12,59,8.60
2008,04,05,13,00,8.60
2008,04,05,13,01,8.60
2008,04,05,13,02,8.60
2008,04,05,13,03,8.60
2008,04,05,13,04,8.60
2008,04,05,13,05,8.70
2008,04,05,13,06,8.80
2008,04,05,13,07,8.80
2008,04,05,13,08,8.80
2008,04,05,13,09,8.80
2008,04,05,13,10,8.80
2008,04,05,13,11,8.80
2008,04,05,13,12,8.70
2008,04,05,13,13,8.70
2008,04,05,13,14,8.70
2008,04,05,13,15,8.60
2008,04,05,13,16,8.60
2008,04,05,13,17,8.60
2008,04,05,13,18,8.60
2008,04,05,13,19,8.60
2008,04,05,13,20,8.60
2008,04,05,13,21,8.60
2008,04,05,13,22,8.60
2008,04,05,13,23,8.60
2008,04,05,13,24,8.60
2008,04,05,13,25,8.70
2008,04,05,13,26,8.70
2008,04,05,13,27,8.60
2008,04,05,13,28,8.60
2008,04,05,13,29,8.60
2008,04,05,13,30,8.50
2008,04,05,13,31,8.50
2008,04,05,13,32,8.50
2008,04,05,13,33,8.50
2008,04,05,13,34,8.50
2008,04,05,13,35,8.50
2008,04,05,13,36,8.50
2008,04,05,13,37,8.50
2008,04,05,13,38,8.50
2008,04,05,13,39,8.40
2008,04,05,13,40,8.40
2008,04,05,13,41,8.40
2008,04,05,13,42,8.40
2008,04,05,13,43,8.40
2008,04,05,13,44,8.40
2008,04,05,13,45,8.30
2008,04,05,13,46,8.40
2008,04,05,13,47,8.40
2008,04,05,13,48,8.40
2008,04,05,13,49,8.30
2008,04,05,13,50,8.30
2008,04,05,13,51,8.30
2008,04,05,13,52,8.30
2008,04,05,13,53,8.30
2008,04,05,13,54,8.30
2008,04,05,13,55,8.30
2008,04,05,13,56,8.40
2008,04,05,13,57,8.40
2008,04,05,13,58,8.40
2008,04,05,13,59,8.40
2008,04,05,14,00,8.40
2008,04,05,14,01,8.30
2008,04,05,14,02,8.30
2008,04,05,14,03,8.20
2008,04,05,14,04,8.20
2008,04,05,14,05,8.10
2008,04,05,14,06,8.10
2008,04,05,14,07,8.10
2008,04,05,14,08,8.10
2008,04,05,14,09,8.10
2008,04,05,14,10,8.10
2008,04,05,14,11,8.10
2008,04,05,14,12,8.10
2008,04,05,14,13,8.00
2008,04,05,14,14,8.00
2008,04,05,14,15,7.90
2008,04,05,14,16,7.90
2008,04,05,14,17,7.90
2008,04,05,14,18,7.90
2008,04,05,14,19,7.90
2008,04,05,14,20,7.90
2008,04,05,14,21,7.90
2008,04,05,14,22,7.80
2008,04,05,14,23,7.80
2008,04,05,14,24,7.80
2008,04,05,14,25,7.80
2008,04,05,14,26,7.80
2008,04,05,14,27,7.80
2008,04,05,14,28,7.80
2008,04,05,14,29,7.80
2008,04,05,14,30,7.80
2008,04,05,14,31,7.80
2008,04,05,14,32,7.80
2008,04,05,14,33,7.80
2008,04,05,14,34,7.80
2008,04,05,14,35,7.80
2008,04,05,14,36,7.80
2008,04,05,14,37,7.80
2008,04,05,14,38,7.80
2008,04,05,14,39,7.80
2008,04,05,14,40,7.80
2008,04,05,14,41,7.80
2008,04,05,14,42,7.80
2008,04,05,14,43,7.80
2008,04,05,14,44,7.80
2008,04,05,14,45,7.80
2008,04,05,14,46,7.80
2008,04,05,14,47,7.80
2008,04,05,14,48,7.80
2008,04,05,14,49,7.80
2008,04,05,14,50,7.70
2008,04,05,14,51,7.80
2008,04,05,14,52,7.70
2008,04,05,14,53,7.70
2008,04,05,14,54,7.80
2008,04,05,14,55,7.70
2008,04,05,14,56,7.70
2008,04,05,14,57,7.70
2008,04,05,14,58,7.60
2008,04,05,14,59,7.50
2008,04,05,15,00,7.40
2008,04,05,15,01,7.30
2008,04,05,15,02,7.20
2008,04,05,15,03,7.10
2008,04,05,15,04,7.00
2008,04,05,15,05,6.90
2008,04,05,15,06,6.80
2008,04,05,15,07,6.80
2008,04,05,15,08,6.70
2008,04,05,15,09,6.70
2008,04,05,15,10,6.60
2008,04,05,15,11,6.60
2008,04,05,15,12,6.60
2008,04,05,15,13,6.50
2008,04,05,15,14,6.50
2008,04,05,15,15,6.40
2008,04,05,15,16,6.40
2008,04,05,15,17,6.50
2008,04,05,15,18,6.50
2008,04,05,15,19,6.60
2008,04,05,15,20,6.60
2008,04,05,15,21,6.70
2008,04,05,15,22,6.70
2008,04,05,15,23,6.80
2008,04,05,15,24,6.90
2008,04,05,15,25,6.90
2008,04,05,15,26,6.90
2008,04,05,15,27,6.90
2008,04,05,15,28,7.00
2008,04,05,15,29,7.00
2008,04,05,15,30,7.10
2008,04,05,15,31,7.10
2008,04,05,15,32,7.20
2008,04,05,15,33,7.20
2008,04,05,15,34,7.20
2008,04,05,15,35,7.20
2008,04,05,15,36,7.20
2008,04,05,15,37,7.20
2008,04,05,15,38,7.20
2008,04,05,15,39,7.20
2008,04,05,15,40,7.20
2008,04,05,15,41,7.20
2008,04,05,15,42,7.10
2008,04,05,15,43,7.00
2008,04,05,15,44,6.90
2008,04,05,15,45,6.80
2008,04,05,15,46,6.70
2008,04,05,15,47,6.60
2008,04,05,15,48,6.70
2008,04,05,15,49,6.70
2008,04,05,15,50,6.70
2008,04,05,15,51,6.70
2008,04,05,15,52,6.70
2008,04,05,15,53,6.70
2008,04,05,15,54,6.70
2008,04,05,15,55,6.80
2008,04,05,15,56,6.80
2008,04,05,15,57,6.80
2008,04,05,15,58,6.80
2008,04,05,15,59,6.90
2008,04,05,16,00,6.90
2008,04,05,16,01,6.90
2008,04,05,16,02,7.00
2008,04,05,16,03,7.00
2008,04,05,16,04,7.10
2008,04,05,16,05,7.10
2008,04,05,16,06,7.10
2008,04,05,16,07,7.20
2008,04,05,16,08,7.20
2008,04,05,16,09,7.20
2008,04,05,16,10,7.20
2008,04,05,16,11,7.20
2008,04,05,16,12,7.20
2008,04,05,16,13,7.20
2008,04,05,16,14,7.20
2008,04,05,16,15,7.20
2008,04,05,16,16,7.20
2008,04,05,16,17,7.20
2008,04,05,16,18,7.20
2008,04,05,16,19,7.30
2008,04,05,16,20,7.30
2008,04,05,16,21,7.30
2008,04,05,16,22,7.30
2008,04,05,16,23,7.20
2008,04,05,16,24,7.20
2008,04,05,16,25,7.20
2008,04,05,16,26,7.20
2008,04,05,16,27,7.20
2008,04,05,16,28,7.20
2008,04,05,16,29,7.20
2008,04,05,16,30,7.20
2008,04,05,16,31,7.20
2008,04,05,16,32,7.20
2008,04,05,16,33,7.20
2008,04,05,16,34,7.20
2008,04,05,16,35,7.20
2008,04,05,16,36,7.20
2008,04,05,16,37,7.10
2008,04,05,16,38,7.10
2008,04,05,16,39,7.10
2008,04,05,16,40,7.00
2008,04,05,16,41,7.00
2008,04,05,16,42,7.00
2008,04,05,16,43,6.90
2008,04,05,16,44,6.80
2008,04,05,16,45,6.70
2008,04,05,16,46,6.50
2008,04,05,16,47,6.50
2008,04,05,16,48,6.40
2008,04,05,16,49,6.30
2008,04,05,16,50,6.30
2008,04,05,16,51,6.20
2008,04,05,16,52,6.20
2008,04,05,16,53,6.20
2008,04,05,16,54,6.10
2008,04,05,16,55,6.10
2008,04,05,16,56,6.10
2008,04,05,16,57,6.00
2008,04,05,16,58,6.00
2008,04,05,16,59,6.00
2008,04,05,17,00,6.00
2008,04,05,17,01,6.00
2008,04,05,17,02,6.00
2008,04,05,17,03,5.90
2008,04,05,17,04,6.00
2008,04,05,17,05,6.00
2008,04,05,17,06,6.00
2008,04,05,17,07,6.00
2008,04,05,17,08,6.00
2008,04,05,17,09,6.00
2008,04,05,17,10,6.00
2008,04,05,17,11,6.00
2008,04,05,17,12,6.00
2008,04,05,17,13,6.00
2008,04,05,17,14,6.00
2008,04,05,17,15,6.00
2008,04,05,17,16,6.00
2008,04,05,17,17,6.00
2008,04,05,17,18,6.00
2008,04,05,17,19,5.90
2008,04,05,17,20,5.90
2008,04,05,17,21,5.90
2008,04,05,17,22,5.90
2008,04,05,17,23,5.90
2008,04,05,17,24,5.90
2008,04,05,17,25,5.90
2008,04,05,17,26,5.90
2008,04,05,17,27,5.90
2008,04,05,17,28,5.90
2008,04,05,17,29,5.90
2008,04,05,17,30,6.00
2008,04,05,17,31,6.00
2008,04,05,17,32,6.00
2008,04,05,17,33,6.00
2008,04,05,17,34,6.00
2008,04,05,17,35,6.00
2008,04,05,17,36,6.00
2008,04,05,17,37,6.00
2008,04,05,17,38,6.00
2008,04,05,17,39,6.00
2008,04,05,17,40,6.00
2008,04,05,17,41,6.00
2008,04,05,17,42,6.10
2008,04,05,17,43,6.10
2008,04,05,17,44,6.10
2008,04,05,17,45,6.10
2008,04,05,17,46,6.10
2008,04,05,17,47,6.10
2008,04,05,17,48,6.10
2008,04,05,17,49,6.00
2008,04,05,17,50,6.00
2008,04,05,17,51,6.00
2008,04,05,17,52,6.00
2008,04,05,17,53,5.90
2008,04,05,17,54,5.90
2008,04,05,17,55,5.90
2008,04,05,17,56,5.90
2008,04,05,17,57,5.90
2008,04,05,17,58,5.90
2008,04,05,17,59,5.90
2008,04,05,18,00,5.90
2008,04,05,18,01,5.90
2008,04,05,18,02,5.90
2008,04,05,18,03,5.90
2008,04,05,18,04,5.90
2008,04,05,18,05,5.90
2008,04,05,18,06,5.90